DW8248 Weather Reports


Display with metric or nautical units.
time (UTC)temp
F
wind
direction
speed
MPH
gust
MPH
rain 1hr
in
rain 24hr
in
rain mn
in
humidity
%
barometer
mb
20180421054045 75 56 5.0 12.0 0.00 0.00 0.00 80 1018.6
20180421053021 75 73 5.0 13.0 0.00 0.00 0.00 80 1018.8
20180421051949 75 84 6.0 13.0 0.00 0.00 0.00 79 1018.9
20180421050938 75 113 6.0 11.0 0.00 0.00 0.00 79 1019.0
20180421045930 75 94 6.0 11.0 0.00 0.00 0.00 80 1019.1
20180421044936 75 142 6.0 12.0 0.00 0.00 0.00 80 1019.1
20180421043903 75 86 6.0 12.0 0.00 0.00 0.00 81 1019.1
20180421042844 75 65 5.0 11.0 0.00 0.00 0.00 81 1019.1
20180421041856 74 51 3.0 11.0 0.00 0.00 0.00 85 1019.2
20180421040830 74 44 3.0 8.0 0.00 0.00 0.00 87 1019.1
20180421035822 74 355 4.0 8.0 0.00 0.00 0.00 86 1019.0
20180421034757 74 44 4.0 11.0 0.00 0.00 0.00 86 1019.0
20180421033813 74 351 5.0 11.0 0.00 0.00 0.00 86 1019.2
20180421032758 74 5 4.0 10.0 0.00 0.00 0.00 86 1019.1
20180421031817 74 5 5.0 9.0 0.00 0.00 0.00 86 1019.1
20180421030836 74 5 6.0 10.0 0.00 0.00 0.00 86 1019.1
20180421025830 74 355 7.0 10.0 0.00 0.00 0.00 86 1019.2
20180421024814 74 355 5.0 13.0 0.00 0.00 0.00 85 1019.4
20180421023825 74 21 7.0 13.0 0.00 0.00 0.00 85 1019.5
20180421022818 74 355 5.0 9.0 0.00 0.00 0.00 84 1019.1
20180421021756 74 36 4.0 9.0 0.00 0.00 0.00 83 1019.0
20180421020749 74 27 5.0 10.0 0.00 0.00 0.00 83 1018.9
20180421015744 74 30 5.0 10.0 0.00 0.00 0.00 83 1018.9
20180421014715 74 30 5.0 10.0 0.00 0.00 0.00 83 1018.8
20180421013719 74 34 5.0 9.0 0.00 0.00 0.00 83 1018.6
20180421012728 74 31 5.0 9.0 0.00 0.00 0.00 83 1018.4
20180421011715 73 5 5.0 11.0 0.00 0.00 0.00 82 1018.4
20180421010653 73 22 5.0 11.0 0.00 0.00 0.00 82 1018.2
20180421005622 73 48 5.0 10.0 0.00 0.00 0.00 83 1018.1
20180421004633 74 20 5.0 10.0 0.00 0.00 0.00 82 1018.1
20180421003603 74 12 6.0 10.0 0.00 0.00 0.00 82 1018.1
20180421002621 74 12 5.0 9.0 0.00 0.00 0.00 82 1018.0
20180421001607 74 61 5.0 11.0 0.00 0.00 0.00 82 1017.9
20180421000541 74 24 6.0 13.0 0.00 0.00 0.00 80 1017.9
20180420235545 75 27 6.0 13.0 0.00 0.00 0.00 80 1017.8
20180420234512 75 5 6.0 11.0 0.00 0.00 0.00 78 1017.8
20180420233505 75 28 5.0 10.0 0.00 0.00 0.00 75 1017.6
20180420232449 76 0 4.0 10.0 0.00 0.00 0.00 72 1017.6
20180420231458 76 38 4.0 10.0 0.00 0.00 0.00 73 1017.5
20180420230454 76 31 5.0 10.0 0.00 0.00 0.00 75 1017.5
20180420225509 76 35 4.0 8.0 0.00 0.00 0.00 76 1017.4
20180420224446 76 30 4.0 8.0 0.00 0.00 0.00 75 1017.2
20180420223507 77 36 3.0 7.0 0.00 0.00 0.00 74 1017.1
20180420222529 77 115 3.0 7.0 0.00 0.00 0.00 74 1017.1
20180420221507 76 90 3.0 8.0 0.00 0.00 0.00 75 1017.0
20180420220433 76 107 4.0 8.0 0.00 0.00 0.00 75 1017.0
20180420215442 76 74 4.0 8.0 0.00 0.00 0.00 74 1017.0
20180420214415 76 107 4.0 9.0 0.00 0.00 0.00 73 1016.9
20180420213433 76 133 4.0 9.0 0.00 0.00 0.00 75 1016.9
20180420212434 76 109 5.0 10.0 0.00 0.00 0.00 73 1016.9
20180420211416 76 122 5.0 11.0 0.00 0.00 0.00 73 1017.0
20180420210431 77 78 4.0 11.0 0.00 0.00 0.00 74 1017.0
20180420205443 76 86 5.0 10.0 0.00 0.00 0.00 74 1017.1
20180420204439 76 72 4.0 10.0 0.00 0.00 0.00 73 1017.2
20180420203405 76 74 5.0 10.0 0.00 0.00 0.00 73 1017.3
20180420202346 76 70 6.0 11.0 0.00 0.00 0.00 74 1017.4
20180420201311 76 87 6.0 11.0 0.00 0.00 0.00 73 1017.5
20180420200243 76 90 5.0 12.0 0.00 0.00 0.00 73 1017.5
20180420195245 75 81 7.0 12.0 0.00 0.00 0.00 74 1017.7
20180420194305 75 125 6.0 12.0 0.00 0.00 0.00 76 1017.7
20180420193325 76 63 6.0 13.0 0.00 0.00 0.00 75 1017.9
20180420192306 76 92 6.0 13.0 0.00 0.00 0.00 73 1018.0
20180420191306 76 72 5.0 11.0 0.00 0.00 0.00 75 1018.1
20180420190259 75 48 6.0 12.0 0.00 0.00 0.00 75 1018.2
20180420185255 75 97 6.0 12.0 0.00 0.00 0.00 76 1018.2
20180420184307 76 78 6.0 12.0 0.00 0.00 0.00 76 1018.2
20180420183258 75 49 7.0 12.0 0.00 0.00 0.00 76 1018.3
20180420182255 75 67 5.0 12.0 0.00 0.00 0.00 74 1018.4
20180420181242 75 75 5.0 10.0 0.00 0.00 0.00 72 1018.4
20180420180205 75 57 5.0 10.0 0.00 0.00 0.00 74 1018.4
20180420175139 75 64 5.0 11.0 0.00 0.00 0.00 75 1018.5
20180420174150 74 74 6.0 11.0 0.00 0.00 0.00 76 1018.5
20180420173138 74 99 5.0 11.0 0.00 0.00 0.00 77 1018.6
20180420172138 74 51 6.0 10.0 0.00 0.00 0.00 76 1018.6
20180420171109 74 102 7.0 11.0 0.00 0.00 0.00 78 1018.7
20180420170111 74 55 6.0 11.0 0.00 0.00 0.00 78 1018.9
20180420165120 74 55 6.0 10.0 0.00 0.00 0.00 76 1018.9
20180420164046 74 45 5.0 10.0 0.00 0.00 0.00 78 1019.1
20180420163016 73 43 4.0 10.0 0.00 0.00 0.00 78 1019.0
20180420162018 73 59 5.0 10.0 0.00 0.00 0.00 79 1019.0
20180420161026 74 55 4.0 8.0 0.00 0.00 0.00 78 1019.0
20180420155957 73 32 4.0 9.0 0.00 0.00 0.00 77 1019.2
20180420155013 73 46 5.0 9.0 0.00 0.00 0.00 78 1019.2
20180420153936 73 24 5.0 9.0 0.00 0.00 0.00 78 1019.3
20180420152939 74 16 4.0 10.0 0.00 0.00 0.00 76 1019.3
20180420151924 73 68 5.0 12.0 0.00 0.00 0.00 77 1019.2
20180420150929 73 349 6.0 12.0 0.00 0.00 0.00 79 1019.1
20180420145921 73 355 6.0 10.0 0.00 0.00 0.00 78 1019.1
20180420144905 72 328 9.0 13.0 0.00 0.00 0.00 79 1019.1
20180420143911 71 319 11.0 14.0 0.00 0.00 0.00 82 1018.9
20180420142913 71 339 11.0 14.0 0.00 0.00 0.00 82 1018.9
20180420141920 71 321 11.0 14.0 0.00 0.00 0.00 82 1018.6
20180420140918 71 316 11.0 14.0 0.00 0.00 0.00 81 1018.5
20180420135922 71 341 11.0 14.0 0.00 0.00 0.00 81 1018.5
20180420134924 72 313 9.0 12.0 0.00 0.00 0.00 82 1018.4
20180420133936 72 321 9.0 12.0 0.00 0.00 0.00 80 1018.3
20180420132949 71 321 9.0 11.0 0.00 0.00 0.00 80 1018.4
20180420131948 71 320 8.0 11.0 0.00 0.00 0.00 81 1018.3
20180420130930 70 323 4.0 9.0 0.00 0.00 0.00 81 1018.2
20180420125905 70 304 4.0 6.0 0.00 0.00 0.00 83 1018.2
20180420124831 69 309 4.0 7.0 0.00 0.00 0.00 85 1018.2
20180420123837 69 315 4.0 7.0 0.00 0.00 0.00 86 1018.2
20180420122853 68 309 3.0 6.0 0.00 0.00 0.00 87 1018.2
20180420121914 68 296 3.0 6.0 0.00 0.00 0.00 88 1018.1
20180420120857 67 311 4.0 6.0 0.00 0.00 0.00 89 1018.0
20180420115847 67 302 4.0 6.0 0.00 0.00 0.00 89 1018.0
20180420114819 67 302 4.0 7.0 0.00 0.00 0.00 89 1018.1
20180420113838 67 302 5.0 7.0 0.00 0.00 0.00 89 1018.0
20180420112830 67 287 5.0 7.0 0.00 0.00 0.00 89 1018.0
20180420111813 67 288 4.0 7.0 0.00 0.00 0.00 88 1017.9
20180420110737 67 296 3.0 6.0 0.00 0.00 0.00 88 1017.8
20180420105702 67 302 2.0 3.0 0.00 0.00 0.00 88 1017.6
20180420104658 67 298 1.0 3.0 0.00 0.00 0.00 88 1017.4
20180420103712 67 294 1.0 3.0 0.00 0.00 0.00 88 1017.2
20180420102728 67 297 2.0 3.0 0.00 0.00 0.00 88 1017.1
20180420101655 67 297 2.0 3.0 0.00 0.00 0.00 88 1017.0
20180420100641 67 300 3.0 6.0 0.00 0.00 0.00 88 1017.0
20180420095628 67 298 3.0 6.0 0.00 0.00 0.00 87 1016.9
20180420094606 67 296 2.0 3.0 0.00 0.00 0.00 87 1016.9
20180420093607 67 296 2.0 4.0 0.00 0.00 0.00 87 1016.8
20180420092556 67 300 3.0 4.0 0.00 0.00 0.00 86 1016.7
20180420091612 67 291 3.0 5.0 0.00 0.00 0.00 86 1016.8
20180420090620 68 294 3.0 7.0 0.00 0.00 0.00 86 1016.7
20180420085622 68 304 4.0 7.0 0.00 0.00 0.00 85 1016.7
20180420084619 68 302 4.0 7.0 0.00 0.00 0.00 85 1016.7
20180420083559 68 341 4.0 7.0 0.00 0.00 0.00 84 1016.7
20180420082553 68 336 5.0 8.0 0.00 0.00 0.00 84 1016.8
20180420081529 69 300 5.0 8.0 0.00 0.00 0.00 83 1016.8
20180420080531 69 300 6.0 9.0 0.00 0.00 0.00 82 1016.8
20180420075456 69 304 6.0 9.0 0.00 0.00 0.00 82 1016.8
20180420074435 69 312 7.0 11.0 0.00 0.00 0.00 81 1016.8
20180420073424 69 324 8.0 11.0 0.00 0.00 0.00 81 1016.8
20180420072446 70 329 5.0 9.0 0.00 0.00 0.00 81 1016.8
20180420071459 70 309 5.0 10.0 0.00 0.00 0.00 81 1016.7
20180420070508 70 326 5.0 10.0 0.00 0.00 0.00 80 1016.7
20180420065505 70 325 2.0 7.0 0.00 0.00 0.00 80 1016.6
20180420064434 70 332 2.0 4.0 0.00 0.00 0.00 79 1016.6
20180420063406 71 348 2.0 7.0 0.00 0.00 0.00 79 1016.6
20180420062334 71 329 5.0 9.0 0.00 0.00 0.00 78 1016.5
20180420061333 71 333 7.0 9.0 0.00 0.00 0.00 78 1016.6
20180420060342 71 313 8.0 10.0 0.00 0.00 0.00 78 1016.6
20180420055358 71 311 8.0 11.0 0.00 0.00 0.00 77 1016.7